FW8807 Weather Reports


Display with metric or nautical units.
time (UTC)temp
F
wind
direction
speed
MPH
gust
MPH
rain 1hr
in
rain 24hr
in
rain mn
in
humidity
%
barometer
mb
20260504192017 53 0.0 0.0 0.00 0.28 0.04 92 1022.1
20260504191019 53 0.0 0.0 0.02 0.28 0.04 91 1022.0
20260504190038 53 0.0 0.0 0.02 0.28 0.04 91 1022.0
20260504185017 54 0.0 0.0 0.02 0.28 0.04 91 1022.0
20260504184017 54 0.0 0.0 0.02 0.28 0.04 91 1021.9
20260504183017 54 0.0 0.0 0.02 0.28 0.04 91 1021.9
20260504182017 54 0.0 0.0 0.02 0.28 0.04 91 1021.8
20260504181017 54 0.0 0.0 0.01 0.27 0.02 91 1021.7
20260504180037 54 0.0 0.0 0.01 0.27 0.02 91 1021.7
20260504175017 54 0.0 0.0 0.00 0.26 0.02 91 1021.8
20260504174200 54 0.0 0.0 0.00 0.26 0.02 91 1021.8
20260504173039 54 0.0 0.0 0.01 0.26 0.02 91 1021.8
20260504172018 53 0.0 0.0 0.02 0.26 0.02 91 1021.9
20260504171017 53 0.0 0.0 0.02 0.26 0.02 90 1021.9
20260504151037 54 0.0 0.0 0.00 0.40 0.00 89 1021.9
20260504141019 54 0.0 0.0 0.00 0.40 0.40 88 1021.4
20260504081016 61 270 1.0 6.0 0.00 0.46 0.34 71 1017.8
20260504045016 66 270 4.0 11.0 0.00 0.50 0.34 66 1016.0
20260504044016 66 225 4.0 13.0 0.00 0.50 0.34 64 1015.9
20260504043016 66 248 4.0 15.0 0.00 0.50 0.34 65 1015.9
20260504042016 66 248 4.0 13.0 0.00 0.50 0.34 65 1015.7
20260504041018 66 248 4.0 10.0 0.00 0.50 0.34 66 1015.8
20260504040037 65 248 3.0 10.0 0.00 0.50 0.34 68 1015.7
20260504035016 65 225 3.0 11.0 0.00 0.50 0.34 69 1015.8
20260504034016 65 225 4.0 13.0 0.00 0.50 0.34 68 1015.8
20260504033018 65 248 3.0 14.0 0.00 0.50 0.34 70 1015.7
20260504032018 64 248 3.0 11.0 0.00 0.50 0.34 71 1015.7
20260504031039 64 248 3.0 12.0 0.00 0.50 0.34 73 1015.8
20260504030018 64 248 3.0 9.0 0.00 0.50 0.34 73 1015.8
20260504025018 64 248 3.0 10.0 0.00 0.50 0.34 74 1015.9
20260504024018 64 225 3.0 8.0 0.00 0.50 0.34 74 1015.9
20260504023041 64 248 4.0 10.0 0.00 0.50 0.34 72 1015.9
20260504022018 64 248 3.0 9.0 0.00 0.50 0.34 75 1016.0
20260504021018 63 270 2.0 6.0 0.00 0.50 0.34 76 1016.0
20260504020040 63 248 3.0 10.0 0.00 0.50 0.34 75 1016.0
20260504015038 63 225 3.0 8.0 0.00 0.50 0.34 74 1015.9
20260504014020 64 180 4.0 9.0 0.00 0.50 0.34 75 1015.8
20260504013018 63 248 4.0 11.0 0.00 0.50 0.34 79 1015.7
20260504012040 62 248 4.0 11.0 0.00 0.50 0.34 80 1015.7
20260504011018 62 270 4.0 11.0 0.00 0.50 0.34 82 1015.6
20260504010038 61 248 3.0 9.0 0.00 0.50 0.34 84 1015.5
20260504005018 61 270 3.0 10.0 0.00 0.50 0.34 87 1015.4
20260504004018 60 225 3.0 8.0 0.00 0.50 0.34 88 1015.4
20260504003018 59 270 4.0 10.0 0.02 0.50 0.34 89 1015.3
20260504002018 59 270 3.0 10.0 0.02 0.50 0.34 89 1015.2
20260504001018 59 270 2.0 9.0 0.02 0.50 0.34 90 1015.1
20260504000018 59 248 1.0 6.0 0.02 0.50 0.34 90 1015.0
20260503235017 59 248 1.0 4.0 0.02 0.50 0.34 90 1014.9
20260503234018 59 270 2.0 9.0 0.02 0.50 0.34 90 1014.8
20260503233100 59 270 3.0 13.0 0.01 0.48 0.32 90 1014.7
20260503232018 58 270 1.0 6.0 0.00 0.47 0.31 91 1014.4
20260503231018 58 270 1.0 3.0 0.00 0.47 0.31 91 1014.4
20260503230020 57 270 1.0 6.0 0.00 0.47 0.31 91 1014.2
20260503225018 57 0.0 1.0 0.00 0.47 0.31 91 1014.1
20260503224038 56 270 1.0 10.0 0.00 0.47 0.31 90 1014.0
20260503223058 57 270 3.0 7.0 0.00 0.47 0.31 90 1013.9
20260503222018 57 270 1.0 4.0 0.01 0.47 0.31 90 1013.9
20260503221018 57 270 1.0 6.0 0.11 0.47 0.31 90 1013.7
20260503220019 57 270 2.0 9.0 0.12 0.47 0.31 90 1013.4
20260503215018 57 270 1.0 7.0 0.12 0.47 0.31 90 1013.3
20260503214018 57 270 1.0 6.0 0.12 0.47 0.31 90 1013.3
20260503213019 57 270 2.0 8.0 0.12 0.47 0.31 89 1013.2
20260503212018 57 270 1.0 4.0 0.11 0.46 0.31 90 1013.2
20260503211017 57 293 4.0 12.0 0.02 0.36 0.20 89 1013.1
20260503210018 57 270 2.0 7.0 0.01 0.35 0.20 90 1012.9
20260503205019 57 293 3.0 12.0 0.01 0.35 0.20 89 1012.9
20260503204018 57 293 2.0 8.0 0.01 0.35 0.20 89 1012.7
20260503203019 57 293 3.0 10.0 0.01 0.35 0.20 89 1012.7
20260503202017 57 270 3.0 11.0 0.01 0.39 0.20 89 1012.5
20260503201017 57 270 2.0 6.0 0.03 0.38 0.19 89 1012.3
20260503200018 57 293 2.0 7.0 0.03 0.38 0.19 89 1012.3
20260503195019 57 315 2.0 5.0 0.03 0.38 0.19 89 1012.4
20260503194017 57 293 2.0 8.0 0.03 0.38 0.19 89 1012.4
20260503193017 57 225 4.0 12.0 0.03 0.38 0.19 88 1012.4